EW5705 Weather Reports


time (UTC)temp
C
wind
direction
speed
KPH
gust
KPH
rain 1hr
cm
rain 24hr
cm
rain mn
cm
humidity
%
barometer
mb
20260508193055 7 121 4.8 9.7 0.00 1.83 0.00 85 1001.5
20260508191544 7 121 3.2 11.3 0.00 1.83 0.00 85 1001.6
20260508190046 7 114 9.7 12.9 0.00 1.83 0.00 86 1001.3
20260508184548 7 87 9.7 14.5 0.00 2.84 0.00 84 1001.2
20260508183046 7 107 6.4 11.3 0.00 2.84 0.00 84 1001.4
20260508181541 7 105 6.4 12.9 0.00 2.84 0.00 85 1001.6
20260508180035 7 104 8.0 17.7 0.00 2.84 0.00 84 1001.5
20260508174554 8 89 9.7 17.7 0.00 2.84 0.00 82 1001.3
20260508173033 8 87 9.7 14.5 0.00 2.84 0.00 84 1001.4
20260508171533 8 108 9.7 14.5 0.00 2.84 0.00 84 1001.8
20260508170130 8 102 8.0 12.9 0.00 2.84 0.00 85 1001.6
20260508164527 8 94 6.4 11.3 0.00 2.84 0.00 84 1001.6
20260508163040 7 87 9.7 14.5 0.00 2.84 0.00 83 1001.5
20260508161525 7 88 8.0 12.9 0.00 2.84 0.00 84 1001.7
20260508160026 7 85 9.7 14.5 0.00 2.84 0.00 86 1001.6
20260508154522 7 94 8.0 14.5 0.00 2.84 0.00 86 1001.7
20260508153027 7 93 6.4 11.3 0.00 2.84 0.00 87 1001.7
20260508151527 7 91 8.0 12.9 0.00 2.84 0.00 88 1001.7
20260508150022 7 91 8.0 11.3 0.00 2.84 0.00 88 1001.9
20260508144518 7 100 9.7 14.5 0.00 2.84 0.00 89 1001.7
20260508143017 7 100 4.8 11.3 0.00 2.84 0.00 90 1002.1
20260508141517 6 89 9.7 14.5 0.00 2.84 0.00 89 1002.2
20260508140015 7 86 8.0 12.9 0.00 2.84 0.00 90 1002.4
20260508134522 7 87 6.4 11.3 0.00 2.84 0.00 92 1002.8
20260508133014 7 98 8.0 12.9 0.00 2.84 0.00 94 1002.6
20260508131513 7 152 4.8 8.0 0.00 2.84 0.00 95 1002.4
20260508130012 7 152 3.2 8.0 0.00 2.84 0.00 96 1002.2
20260508124512 6 153 4.8 9.7 0.00 2.84 0.00 96 1002.4
20260508123012 6 154 3.2 8.0 0.00 2.84 0.00 96 1002.1
20260508121513 6 154 1.6 8.0 0.00 2.84 0.00 96 1002.2
20260508120010 6 155 0.0 9.7 0.00 2.84 0.00 96 1002.4
20260508114510 6 156 3.2 9.7 0.00 3.25 0.00 96 1002.6
20260508113010 6 154 0.0 9.7 0.00 3.25 0.00 97 1002.2
20260508111509 5 154 3.2 9.7 0.00 3.25 0.00 97 1002.5
20260508110010 5 154 0.0 8.0 0.00 3.25 0.00 97 1002.7
20260508104507 4 154 0.0 4.8 0.00 3.25 0.00 96 1003.1
20260508103006 4 154 1.6 4.8 0.00 3.25 0.00 96 1002.9
20260508101518 3 154 0.0 0.0 0.00 3.25 0.00 96 1002.9
20260508100005 3 154 0.0 3.2 0.00 3.25 0.00 96 1002.6
20260508094501 3 154 0.0 1.6 0.00 3.25 0.00 96 1002.4
20260508093106 3 154 1.6 3.2 0.00 3.25 0.00 96 1002.1
20260508091600 3 154 0.0 0.0 0.00 3.25 0.00 96 1002.1
20260508090111 3 154 0.0 3.2 0.00 3.25 0.00 96 1002.2
20260508084556 3 154 4.8 8.0 0.00 3.25 0.00 96 1002.2
20260508083054 3 75 3.2 4.8 0.00 3.25 0.00 96 1002.0
20260508081601 3 75 0.0 0.0 0.00 3.25 0.00 96 1001.9
20260508080053 3 75 0.0 0.0 0.00 3.25 0.00 96 1001.6
20260508074554 3 75 0.0 0.0 0.00 3.28 0.00 96 1001.8
20260508073050 3 75 0.0 0.0 0.00 3.28 0.00 95 1001.8
20260508071548 3 75 0.0 3.2 0.00 3.28 0.00 95 1001.8
20260508070046 3 75 0.0 8.0 0.00 3.28 0.00 95 1001.8
20260508064543 4 75 4.8 9.7 0.00 3.28 0.00 95 1001.6
20260508063039 5 75 3.2 8.0 0.00 3.28 0.00 95 1001.8
20260508061537 6 75 1.6 8.0 0.00 3.28 0.00 95 1001.9
20260508060033 6 72 3.2 6.4 0.00 3.28 0.00 95 1001.8
20260508054530 6 72 0.0 4.8 0.00 3.28 0.00 95 1001.7
20260508053028 7 72 0.0 8.0 0.00 3.28 0.00 95 1001.7
20260508051523 7 71 0.0 3.2 0.00 3.28 0.00 95 1001.4
20260508050022 7 71 0.0 0.0 0.00 3.28 0.00 95 1001.6
20260508044521 7 71 0.0 4.8 0.00 3.28 0.00 95 1001.5
20260508043020 7 71 0.0 8.0 0.00 3.28 0.00 95 1001.5
20260508041519 7 74 0.0 8.0 0.00 3.28 0.00 95 1001.7
20260508040019 7 74 6.4 9.7 0.00 3.28 0.00 94 1001.7
20260508034517 8 75 1.6 12.9 0.00 3.28 0.00 95 1001.7
20260508033017 9 74 0.0 3.2 0.00 3.28 0.00 96 1001.7
20260508031509 8 74 0.0 3.2 0.00 3.28 0.00 95 1001.8
20260508030006 8 74 0.0 8.0 0.00 3.28 0.00 96 1001.9
20260508024507 9 237 1.6 12.9 0.00 3.28 3.28 96 1001.7
20260508023013 8 147 0.0 4.8 0.00 3.28 3.28 96 1001.8
20260508021503 8 147 0.0 11.3 0.00 3.28 3.28 95 1001.6
20260508020003 9 201 0.0 9.7 0.00 3.28 3.28 96 1001.5
20260508014505 8 200 0.0 9.7 0.00 3.28 3.28 96 1001.6
20260508013001 8 199 6.4 12.9 0.00 3.28 3.28 96 1001.4
20260508011603 8 197 4.8 19.3 0.00 3.28 3.28 95 1001.1
20260508010057 10 200 9.7 16.1 0.00 3.28 3.28 96 1001.2
20260508004559 10 239 4.8 22.5 0.00 3.28 3.28 96 1001.1
20260508003104 9 199 11.3 17.7 0.00 3.28 3.28 96 1001.6
20260508001554 9 200 4.8 11.3 0.00 3.28 3.28 96 1001.7
20260508000053 9 202 6.4 19.3 0.00 3.28 3.28 96 1001.8
20260507234553 9 191 3.2 12.9 0.00 3.28 3.28 95 1001.7
20260507233054 10 203 3.2 12.9 0.00 3.28 3.28 95 1001.4
20260507231557 10 195 9.7 19.3 0.00 3.28 3.28 95 1001.8
20260507230050 10 202 11.3 19.3 0.00 3.28 3.28 95 1001.8
20260507224600 10 214 12.9 19.3 0.00 3.28 3.28 95 1001.8
20260507223051 10 216 14.5 22.5 0.00 3.28 3.28 94 1001.9
20260507221549 10 200 8.0 16.1 0.00 3.28 3.28 94 1002.0
20260507220048 11 205 11.3 17.7 0.00 3.28 3.28 94 1002.1
20260507214548 11 355 11.3 24.1 0.05 3.28 3.28 94 1002.3
20260507213050 11 355 9.7 19.3 0.10 3.28 3.28 95 1002.2
20260507211550 10 216 11.3 19.3 0.28 3.28 3.28 95 1002.1
20260507210111 10 189 8.0 12.9 0.51 3.28 3.28 95 1001.7
20260507204546 10 189 9.7 16.1 0.71 3.23 3.23 95 1002.6
20260507203043 10 202 9.7 16.1 1.09 3.15 3.15 95 1002.7
20260507201539 10 355 14.5 24.1 1.24 3.00 3.00 95 1003.3
20260507200051 10 202 8.0 24.1 1.27 2.77 2.77 95 1003.4
20260507194536 10 355 12.9 25.7 1.40 2.46 2.46 94 1004.1